Flag Weather past 2 weeks in Coesfeld, North Rhine-Westphalia, Germany

Now
43 °F

Quite cool.


Feels Like: 38 °F
Forecast: 36 / 46 °F
Wind: 8 mph from East

Location: Rheine-Bentlage

Current Time: Nov 27, 2014 at 7:41:00 PM

Latest Report: Nov 27, 2014 at 6:20 PM


Visibility: N/A

Pressure: 29.80 "Hg

Humidity: 76%

Dew point: 36 °F

Location of CoesfeldLocation

Historic Weather in Coesfeld — Graph

°F

Coesfeld temperature yesterday

Maximum temperature yesterday: 43 °F (at 12:20 PM)
Minimum temperature yesterday: 37 °F (at 7:20 AM)
Average temperature yesterday: 41 °F

Past Weeks' High & Low Weather Summary

 TemperatureHumidityPressure
High59 °F (Nov 23, 2:20 PM)100% (Nov 12, 8:20 PM)30.36 "Hg (Nov 12, 8:20 PM)
Low30 °F (Nov 25, 7:20 AM)66% (Nov 21, 1:20 PM)29.47 "Hg (Nov 16, 1:20 PM)
Average45 °F89%29.97 "Hg
* Reported Nov 12 6:20 PM — Nov 27 6:20 PM, Coesfeld, Weather by CustomWeather, © 2014

Note: Actual official high and low records may vary slightly from our data, if they occured in-between our weather recording intervals... More about our weather records

Advertising

Coesfeld weather history for previous 24 hours

 ConditionsComfort  
Time TempWeatherWind HumidityBarometerVisibility
6:20 PM
Nov 27
43 °FQuite cool.8 mph76%29.80 "HgN/A
5:20 PM43 °FQuite cool.7 mph81%29.80 "HgN/A
4:20 PM43 °FQuite cool.8 mph81%29.80 "HgN/A
3:20 PM43 °FPartly sunny.8 mph81%29.77 "Hg5 mi
2:20 PM43 °FPartly sunny.7 mph81%29.80 "Hg5 mi
1:20 PM43 °FOvercast.7 mph81%29.80 "Hg5 mi
12:20 PM43 °FPartly sunny.7 mph81%29.80 "HgN/A
11:20 AM43 °FPartly sunny.7 mph81%29.83 "HgN/A
10:20 AM41 °FPartly sunny.8 mph81%29.83 "HgN/A
9:20 AM41 °FPartly sunny.9 mph81%29.83 "HgN/A
8:20 AM41 °FPartly sunny.6 mph81%29.83 "HgN/A
7:20 AM41 °FPassing clouds.7 mph81%29.83 "HgN/A
6:20 AM41 °FPassing clouds.6 mph81%29.83 "HgN/A
5:20 AM41 °FPassing clouds.5 mph81%29.83 "HgN/A
4:20 AM41 °FQuite cool.8 mph81%29.86 "HgN/A
3:20 AM41 °FQuite cool.6 mph81%29.86 "HgN/A
2:20 AM41 °FQuite cool.7 mph81%29.86 "HgN/A
1:20 AM39 °FChilly.7 mph93%29.89 "HgN/A
12:20 AM39 °FChilly.9 mph93%29.92 "HgN/A
11:20 PM
Nov 26
39 °FChilly.7 mph87%29.92 "HgN/A
10:20 PM41 °FQuite cool.9 mph81%29.92 "HgN/A
9:20 PM41 °FQuite cool.9 mph76%29.95 "HgN/A
8:20 PM41 °FQuite cool.8 mph76%29.95 "HgN/A
7:20 PM41 °FQuite cool.8 mph76%29.95 "HgN/A
Weather by CustomWeather, © 2014

See weather overviewHow to use our weather pages